TimeEDT,TemperatureF,Dew PointF,Humidity,Sea Level PressureIn,VisibilityMPH,Wind Direction,Wind SpeedMPH,Gust SpeedMPH,PrecipitationIn,Events,Conditions,WindDirDegrees,DateUTC
12:53 AM,64.9,61.0,87,29.98,10.0,NNW,3.5,-,N/A,,Partly Cloudy,340,2013-07-13 04:53:00
1:53 AM,66.0,61.0,84,29.97,10.0,Calm,Calm,-,N/A,,Scattered Clouds,0,2013-07-13 05:53:00
2:53 AM,64.0,61.0,90,29.97,10.0,Calm,Calm,-,N/A,,Partly Cloudy,0,2013-07-13 06:53:00
3:53 AM,63.0,60.1,90,29.96,10.0,Calm,Calm,-,N/A,,Scattered Clouds,0,2013-07-13 07:53:00
4:53 AM,63.0,61.0,93,29.97,10.0,Calm,Calm,-,N/A,,Clear,0,2013-07-13 08:53:00
5:53 AM,64.0,61.0,90,29.99,10.0,Calm,Calm,-,N/A,,Scattered Clouds,0,2013-07-13 09:53:00
6:53 AM,64.0,61.0,90,30.01,10.0,Calm,Calm,-,N/A,,Mostly Cloudy,0,2013-07-13 10:53:00
7:53 AM,69.1,62.1,78,30.02,10.0,Variable,4.6,-,N/A,,Mostly Cloudy,0,2013-07-13 11:53:00
8:53 AM,72.0,63.0,73,30.04,10.0,Variable,3.5,-,N/A,,Scattered Clouds,0,2013-07-13 12:53:00
9:53 AM,75.0,62.1,64,30.04,10.0,East,6.9,-,N/A,,Partly Cloudy,80,2013-07-13 13:53:00
10:53 AM,78.1,62.1,58,30.04,10.0,ENE,8.1,-,N/A,,Partly Cloudy,70,2013-07-13 14:53:00
11:53 AM,80.1,63.0,56,30.06,10.0,SE,9.2,-,N/A,,Scattered Clouds,130,2013-07-13 15:53:00
12:53 PM,82.0,63.0,52,30.05,10.0,ESE,8.1,-,N/A,,Scattered Clouds,110,2013-07-13 16:53:00
1:53 PM,82.9,62.1,49,30.05,10.0,ESE,10.4,-,N/A,,Scattered Clouds,120,2013-07-13 17:53:00
2:53 PM,82.0,61.0,49,30.04,10.0,East,8.1,-,N/A,,Mostly Cloudy,100,2013-07-13 18:53:00
3:53 PM,82.0,63.0,52,30.03,10.0,ESE,8.1,-,N/A,,Mostly Cloudy,120,2013-07-13 19:53:00
4:53 PM,81.0,63.0,54,30.04,10.0,ESE,9.2,-,N/A,,Mostly Cloudy,120,2013-07-13 20:53:00
5:53 PM,79.0,62.1,56,30.04,10.0,SE,5.8,-,N/A,,Mostly Cloudy,140,2013-07-13 21:53:00
6:53 PM,81.0,62.1,52,30.04,10.0,Variable,4.6,-,N/A,,Mostly Cloudy,0,2013-07-13 22:53:00
7:53 PM,79.0,63.0,58,30.05,10.0,ESE,5.8,-,N/A,,Mostly Cloudy,110,2013-07-13 23:53:00
8:53 PM,75.9,62.1,62,30.06,10.0,East,9.2,-,N/A,,Scattered Clouds,100,2013-07-14 00:53:00
9:53 PM,73.9,63.0,68,30.07,10.0,Calm,Calm,-,N/A,,Mostly Cloudy,0,2013-07-14 01:53:00
10:53 PM,73.0,64.0,73,30.08,10.0,Calm,Calm,-,N/A,,Mostly Cloudy,0,2013-07-14 02:53:00
11:53 PM,73.0,64.9,76,30.07,10.0,Calm,Calm,-,N/A,,Overcast,0,2013-07-14 03:53:00